map of SHJ home
Great Circle Mapper logo
SHJ - Airport
Location
City:  Sharjah, United Arab Emirates
Name:Sharjah International Airport
ICAO / IATA:OMSJ / SHJ

Details
Type:Airport (Aerodrome, Airfield)
Use:Public/Civil, Military, International (customs port of entry)
Latitude:2519'43"N (25.328575)
Longitude:5531'02"E (55.517150)
Datum:WGS 1984
Elevation:111 ft (34 m)
Variation:1.91E (WMM2015 magnetic declination)
0.05 annual change
Runways:1
Longest:13320 × 148 ft (4060 × 45 m), paved

Time
Time Zone:UTC+4
Local Time:

Weather
METAR:OMSJ 271700Z 03003KT CAVOK 25/18 Q1014
TAF:OMSJ 271655Z 2718/2824 20005KT 8000 FEW035 PROB30
TEMPO 2718/2721 VRB15G30KT 1500 TSRA SCT050CB PROB30 2801/2804 4000 HZ
BECMG 2806/2808 30010KT
BECMG 2816/2818 14005KT PROB30 2821/2824 4000 HZ

Related Locations
Nearby:
Farthest:GMR: 11772 mi / 18945 km
Mangareva [Totegegie], Gambier Islands, PF

Find:

   beyond  
but within

Other Information
Maps:
NOTAMs:
Links:
Sources:

  
flag of United Arab Emirates   

Sectional Chart

Flight Planning
at skyvector.com

Satellite Image

Google Maps Satellite View

 

Copyright © 2004-2015 Karl L. Swartz. All rights reserved.
The Great Circle Mapper name and logo are trademarks of the Great Circle Mapper.
All other trademarks mentioned herein belong to their respective owners.
Please see credits for attibutions and further copyright information.

  Follow gcmap on Facebook Follow gcmap on Twitter Follow gcmap on Google+

hCard Microformat

Geo Microformat